Flag for U.S.A. Weather past 2 weeks in Sandpoint, Idaho, U.S.A.

50 °F


Feels Like: 50 °F
Forecast: 47 / 73 °F
Wind: No wind

Location: Sandpoint Airport

Current Time: Oct 9, 2015 at 4:16:17 AM

Latest Report: Oct 9, 2015 at 3:35 AM

Visibility: 10 mi

Pressure: 30.13 "Hg (27.90 "Hg at 636m altitude)

Humidity: 100%

Dew point: 50 °F

Location of SandpointLocation

Historic Weather in Sandpoint — Graph


Sandpoint temperature yesterday

Maximum temperature yesterday: 63 °F (at 12:15 PM)
Minimum temperature yesterday: 50 °F (at 10:55 PM)
Average temperature yesterday: 56 °F

Past Weeks' High & Low Weather Summary

High81 °F (Sep 25, 3:15 PM)100% (Sep 25, 5:15 AM)30.31 "Hg (Sep 25, 5:15 AM)
Low30 °F (Sep 27, 6:35 AM)17% (Sep 25, 3:15 PM)29.84 "Hg (Oct 2, 5:35 PM)
Average52 °F65%30.04 "Hg
* Reported Sep 24 3:15 AM — Oct 9 3:15 AM, Sandpoint, Weather by CustomWeather, © 2015

Note: Actual official high and low records may vary slightly from our data, if they occured in-between our weather recording intervals... More about our weather records


Sandpoint weather history for previous 24 hours

Time TempWeatherWind HumidityBarometerVisibility
3:15 AM
Fri, Oct 9
50 °FClear.No wind100%30.14 "Hg10 mi
2:55 AM50 °FClear.No wind100%30.14 "Hg10 mi
2:35 AM50 °FClear.No wind100%30.15 "Hg10 mi
2:15 AM50 °FClear.No wind100%30.15 "Hg10 mi
1:55 AM50 °FClear.No wind100%30.15 "Hg10 mi
1:35 AM50 °FClear.No wind100%30.15 "Hg10 mi
1:15 AM50 °FClear.No wind100%30.16 "Hg10 mi
12:55 AM50 °FClear.No wind100%30.16 "Hg10 mi
12:35 AM50 °FClear.No wind100%30.16 "Hg10 mi
12:15 AM50 °FClear.No wind100%30.17 "Hg10 mi
11:55 PM
Thu, Oct 8
52 °FClear.No wind100%30.16 "Hg10 mi
11:35 PM52 °FClear.No wind100%30.16 "Hg10 mi
11:15 PM52 °FClear.No wind100%30.17 "Hg10 mi
10:55 PM50 °FClear.No wind100%30.17 "Hg10 mi
10:35 PM52 °FClear.No wind100%30.17 "Hg10 mi
10:15 PM54 °FClear.5 mph94%30.17 "Hg10 mi
9:55 PM54 °FClear.3 mph94%30.17 "Hg10 mi
9:35 PM54 °FClear.5 mph94%30.18 "Hg10 mi
8:35 PM55 °FClear.6 mph94%30.17 "Hg10 mi
7:55 PM54 °FClear.No wind100%30.21 "Hg10 mi
7:35 PM57 °FClear.3 mph82%30.20 "Hg10 mi
7:15 PM55 °FClear.8 mph94%30.20 "Hg10 mi
6:55 PM55 °FSunny.No wind94%30.22 "Hg10 mi
6:35 PM57 °FSunny.No wind88%30.22 "Hg10 mi
6:15 PM59 °FSunny.No wind82%30.22 "Hg10 mi
5:55 PM61 °FSunny.3 mph72%30.22 "Hg10 mi
5:35 PM61 °FSunny.No wind77%30.23 "Hg10 mi
5:15 PM63 °FScattered clouds.No wind73%30.23 "Hg10 mi
4:55 PM63 °FScattered clouds.No wind68%30.23 "Hg10 mi
4:35 PM63 °FSunny.No wind68%30.24 "Hg10 mi
4:15 PM63 °FSunny.No wind68%30.25 "Hg10 mi
3:55 PM63 °FSunny.No wind68%30.25 "Hg10 mi
3:35 PM63 °FSunny.No wind68%30.25 "Hg10 mi
2:15 PM63 °FSunny.3 mph68%30.27 "Hg10 mi
1:55 PM63 °FScattered clouds.3 mph68%30.28 "Hg10 mi
1:35 PM63 °FScattered clouds.No wind64%30.28 "Hg10 mi
1:15 PM61 °FScattered clouds.3 mph72%30.29 "Hg10 mi
12:55 PM61 °FOvercast.3 mph68%30.30 "Hg10 mi
12:35 PM61 °FPartly sunny.No wind68%30.29 "Hg10 mi
12:15 PM63 °FPartly sunny.5 mph68%30.29 "Hg10 mi
11:55 AM61 °FOvercast.3 mph72%30.29 "Hg10 mi
11:35 AM61 °FOvercast.No wind72%30.30 "Hg10 mi
11:15 AM61 °FPartly sunny.No wind72%30.30 "Hg10 mi
10:55 AM59 °FScattered clouds.No wind77%30.31 "Hg10 mi
10:35 AM59 °FScattered clouds.No wind72%30.31 "Hg10 mi
10:15 AM57 °FPartly sunny.No wind82%30.31 "Hg10 mi
9:55 AM57 °FOvercast.5 mph88%30.30 "Hg10 mi
9:35 AM55 °FOvercast.3 mph94%30.30 "Hg10 mi
9:15 AM54 °FOvercast.No wind100%30.30 "Hg10 mi
8:55 AM54 °FOvercast.No wind94%30.29 "Hg10 mi
8:35 AM54 °FOvercast.No wind100%30.29 "Hg10 mi
8:15 AM52 °FOvercast.No wind100%30.29 "Hg7 mi
7:55 AM52 °FOvercast.No wind100%30.28 "Hg10 mi
7:35 AM52 °FOvercast.No wind100%30.28 "Hg10 mi
7:15 AM52 °FOvercast.No wind100%30.28 "Hg10 mi
6:55 AM52 °FOvercast.No wind100%30.28 "Hg10 mi
6:35 AM52 °FOvercast.No wind100%30.27 "Hg10 mi
6:15 AM52 °FOvercast.No wind100%30.27 "Hg10 mi
5:55 AM52 °FOvercast.No wind100%30.27 "Hg10 mi
5:35 AM52 °FOvercast.No wind100%30.27 "Hg10 mi
5:15 AM52 °FOvercast.No wind100%30.27 "Hg10 mi
4:55 AM52 °FMostly cloudy.No wind100%30.27 "Hg10 mi
4:15 AM52 °FMostly cloudy.No wind100%30.27 "Hg7 mi
Weather by CustomWeather, © 2015

See weather overviewHow to use our weather pages